{"data":{"norad_id":47286,"intl_designator":"2020-100AE","name":"ONEWEB-0140","alt_names":[],"object_type":"PAYLOAD","status":"ACTIVE","operator":null,"country":"UK","launch_date":"2020-12-18","launch_site_code":"VOSTO","launch_vehicle":null,"mission":null,"orbit_class":"UNKNOWN","rcs_meters":null,"size_class":null,"mass_kg":null,"dimensions":null,"purposes":["comms"],"wikipedia_slug":null,"has_3d_model":false,"image_url":null,"decayed_at":null,"tle_current":{"epoch":"2026-05-25T02:21:48.729888Z","epoch_age_seconds":60527,"freshness":"FRESH","line1":"1 47286U 20100AE  26145.09848067  .00000257  00000+0  68029-3 0  9991","line2":"2 47286  87.8962 355.2334 0001808  80.5228 279.6105 13.12443213261661","mean_motion":13.12443213,"eccentricity":0.0001808,"inclination_deg":87.8962,"raan_deg":355.2334,"arg_perigee_deg":80.5228,"mean_anomaly_deg":279.6105,"bstar":0.00068029,"rev_number":26166,"period_min":109.71903284931,"perigee_km":1212.3498614531,"apogee_km":1215.0950778373,"semimajor_km":7591.8594696452,"source":"CELESTRAK","updated_at":"2026-05-25T13:38:22.385446Z"}}}